JBU3914 KJAX-KFLL

Flight info

Callsign JBU3914
Flight time 0h 53m
Altitude 31000
Route EXBOX2 EXBOX PRMUS CUUDA3
Aircraft A320/M-SDE3FGHIRWY/LB1

Departure

Time 2026-05-06 00:19
Airport Jacksonville International Airport (KJAX)

Arrival

Time 2026-05-06 01:13
Airport Fort Lauderdale Hollywood International Airport (KFLL)
Time Latitude Longitude Altitude Speed Heading
2026-05-05 23:54 30.49083 -81.68658 35 ft 0 kts 116°
2026-05-05 23:55 30.49084 -81.68661 36 ft 0 kts 116°
2026-05-06 00:10 30.49085 -81.68662 35 ft 2 kts 116°
2026-05-06 00:10 30.49094 -81.68690 33 ft 4 kts 104°
2026-05-06 00:10 30.49101 -81.68719 34 ft 4 kts 129°
2026-05-06 00:11 30.49105 -81.68726 34 ft 0 kts 206°
2026-05-06 00:14 30.49104 -81.68727 34 ft 1 kts 206°
2026-05-06 00:14 30.49076 -81.68743 35 ft 10 kts 206°
2026-05-06 00:14 30.49016 -81.68794 35 ft 10 kts 262°
2026-05-06 00:15 30.49048 -81.68876 35 ft 12 kts 296°
2026-05-06 00:15 30.49088 -81.68972 34 ft 14 kts 296°
2026-05-06 00:15 30.49095 -81.69066 34 ft 12 kts 230°
2026-05-06 00:15 30.49029 -81.69157 33 ft 17 kts 230°
2026-05-06 00:16 30.48947 -81.69277 35 ft 20 kts 232°
2026-05-06 00:16 30.48919 -81.69385 33 ft 15 kts 308°
2026-05-06 00:16 30.48990 -81.69486 35 ft 18 kts 309°
2026-05-06 00:16 30.49077 -81.69600 35 ft 20 kts 310°
2026-05-06 00:17 30.49175 -81.69733 34 ft 23 kts 310°
2026-05-06 00:17 30.49281 -81.69878 35 ft 21 kts 310°
2026-05-06 00:17 30.49350 -81.69942 35 ft 10 kts
2026-05-06 00:17 30.49428 -81.69919 35 ft 13 kts 14°
2026-05-06 00:18 30.49523 -81.69938 35 ft 15 kts 340°
2026-05-06 00:18 30.49617 -81.69975 34 ft 6 kts 354°
2026-05-06 00:18 30.49640 -81.69946 32 ft 0 kts 69°
2026-05-06 00:18 30.49640 -81.69945 32 ft 0 kts 69°
2026-05-06 00:19 30.49704 -81.69736 36 ft 63 kts 71°
2026-05-06 00:19 30.49921 -81.69025 38 ft 121 kts 71°
2026-05-06 00:19 30.50245 -81.67941 123 ft 157 kts 73°
2026-05-06 00:19 30.50619 -81.66737 711 ft 162 kts 73°
2026-05-06 00:20 30.51000 -81.65455 1224 ft 173 kts 75°
2026-05-06 00:20 30.51365 -81.64078 1666 ft 188 kts 77°
2026-05-06 00:20 30.51738 -81.62536 1969 ft 210 kts 78°
2026-05-06 00:20 30.52128 -81.60807 2356 ft 234 kts 79°
2026-05-06 00:21 30.52521 -81.58882 2858 ft 256 kts 80°
2026-05-06 00:21 30.52871 -81.56840 3707 ft 260 kts 80°
2026-05-06 00:21 30.53230 -81.54725 4349 ft 277 kts 80°
2026-05-06 00:21 30.53414 -81.52458 5103 ft 286 kts 96°
2026-05-06 00:22 30.52797 -81.50276 5965 ft 287 kts 124°
2026-05-06 00:22 30.51428 -81.48623 6848 ft 285 kts 149°
2026-05-06 00:22 30.49642 -81.47617 7609 ft 289 kts 162°
2026-05-06 00:22 30.47697 -81.46830 8371 ft 296 kts 163°
2026-05-06 00:23 30.45722 -81.46038 9095 ft 304 kts 163°
2026-05-06 00:23 30.43701 -81.45230 9811 ft 312 kts 163°
2026-05-06 00:23 30.41628 -81.44319 10294 ft 328 kts 157°
2026-05-06 00:23 30.39523 -81.43081 10531 ft 350 kts 152°
2026-05-06 00:24 30.37396 -81.41615 11082 ft 359 kts 149°
2026-05-06 00:24 30.35272 -81.40069 11746 ft 363 kts 149°
2026-05-06 00:24 30.33127 -81.38510 12465 ft 365 kts 149°
2026-05-06 00:24 30.30955 -81.36965 13179 ft 368 kts 150°
2026-05-06 00:25 30.28752 -81.35440 13878 ft 370 kts 150°
2026-05-06 00:25 30.26520 -81.33928 14465 ft 374 kts 151°
2026-05-06 00:25 30.24258 -81.32414 15024 ft 378 kts 151°
2026-05-06 00:25 30.21968 -81.30888 15566 ft 382 kts 152°
2026-05-06 00:26 30.19653 -81.29347 16123 ft 386 kts 152°
2026-05-06 00:26 30.17314 -81.27787 16677 ft 390 kts 152°
2026-05-06 00:26 30.14954 -81.26208 17246 ft 394 kts 152°
2026-05-06 00:26 30.12565 -81.24608 17806 ft 398 kts 152°
2026-05-06 00:27 30.10156 -81.22995 18332 ft 402 kts 152°
2026-05-06 00:27 30.07717 -81.21363 18777 ft 407 kts 152°
2026-05-06 00:27 30.05208 -81.19819 19237 ft 410 kts 159°
2026-05-06 00:27 30.02515 -81.18752 19712 ft 409 kts 170°
2026-05-06 00:28 29.99714 -81.18225 20201 ft 408 kts 179°
2026-05-06 00:28 29.96875 -81.17935 20695 ft 411 kts 179°
2026-05-06 00:28 29.94016 -81.17643 21183 ft 414 kts 180°
2026-05-06 00:28 29.91132 -81.17298 21649 ft 419 kts 175°
2026-05-06 00:29 29.88276 -81.16477 22107 ft 428 kts 164°
2026-05-06 00:29 29.85541 -81.15050 22534 ft 436 kts 153°
2026-05-06 00:29 29.82976 -81.13134 22965 ft 441 kts 150°
2026-05-06 00:29 29.80290 -81.11460 23383 ft 440 kts 160°
2026-05-06 00:30 29.77468 -81.10075 23788 ft 442 kts 161°
2026-05-06 00:30 29.74614 -81.08688 24125 ft 446 kts 161°
2026-05-06 00:30 29.71741 -81.07294 24453 ft 450 kts 161°
2026-05-06 00:30 29.68845 -81.05881 24777 ft 454 kts 161°
2026-05-06 00:31 29.65924 -81.04455 25102 ft 458 kts 161°
2026-05-06 00:31 29.62979 -81.03021 25443 ft 462 kts 161°
2026-05-06 00:31 29.60009 -81.01571 25753 ft 466 kts 161°
2026-05-06 00:31 29.57016 -81.00107 26078 ft 469 kts 160°
2026-05-06 00:32 29.53999 -80.98627 26400 ft 473 kts 160°
2026-05-06 00:32 29.50957 -80.97137 26693 ft 477 kts 160°
2026-05-06 00:32 29.47881 -80.95633 26991 ft 481 kts 160°
2026-05-06 00:32 29.44788 -80.94119 27305 ft 485 kts 160°
2026-05-06 00:33 29.41670 -80.92597 27608 ft 489 kts 160°
2026-05-06 00:33 29.38527 -80.91066 27903 ft 493 kts 160°
2026-05-06 00:33 29.35366 -80.89523 28286 ft 495 kts 160°
2026-05-06 00:33 29.32191 -80.87975 28632 ft 497 kts 160°
2026-05-06 00:34 29.28993 -80.86422 28957 ft 501 kts 160°
2026-05-06 00:34 29.25770 -80.84863 29275 ft 504 kts 160°
2026-05-06 00:34 29.22524 -80.83296 29604 ft 508 kts 160°
2026-05-06 00:34 29.19253 -80.81716 29867 ft 512 kts 160°
2026-05-06 00:35 29.15948 -80.80119 30170 ft 516 kts 160°
2026-05-06 00:35 29.12628 -80.78510 30439 ft 520 kts 160°
2026-05-06 00:35 29.09288 -80.76892 30719 ft 523 kts 160°
2026-05-06 00:35 29.05930 -80.75263 30980 ft 526 kts 160°
2026-05-06 00:36 29.02563 -80.73634 31057 ft 521 kts 160°
2026-05-06 00:36 28.99269 -80.72043 31079 ft 506 kts 160°
2026-05-06 00:36 28.96043 -80.70488 31081 ft 501 kts 160°
2026-05-06 00:37 28.89595 -80.67536 31074 ft 497 kts 162°
2026-05-06 00:37 28.83136 -80.64708 31071 ft 497 kts 162°
2026-05-06 00:38 28.76684 -80.61870 31061 ft 497 kts 162°
2026-05-06 00:38 28.70242 -80.58998 31054 ft 497 kts 162°
2026-05-06 00:39 28.63799 -80.56101 31046 ft 497 kts 162°
2026-05-06 00:39 28.57351 -80.53230 31045 ft 497 kts 162°
2026-05-06 00:40 28.50920 -80.50375 31057 ft 496 kts 162°
2026-05-06 00:40 28.44500 -80.47533 31054 ft 495 kts 162°
2026-05-06 00:41 28.39167 -80.45173 31054 ft 495 kts 162°
2026-05-06 00:41 28.32762 -80.42333 31056 ft 494 kts 162°
2026-05-06 00:42 28.26349 -80.39506 31062 ft 493 kts 162°
2026-05-06 00:42 28.19951 -80.36673 31066 ft 493 kts 162°
2026-05-06 00:43 28.13563 -80.33842 31071 ft 493 kts 162°
2026-05-06 00:43 28.07167 -80.31057 31084 ft 492 kts 163°
2026-05-06 00:44 28.00713 -80.28519 31060 ft 491 kts 165°
2026-05-06 00:44 27.94240 -80.26074 31077 ft 490 kts 165°
2026-05-06 00:45 27.87775 -80.23595 31078 ft 490 kts 165°
2026-05-06 00:45 27.84564 -80.22341 30947 ft 485 kts 164°
2026-05-06 00:45 27.81407 -80.21097 30703 ft 476 kts 164°
2026-05-06 00:45 27.78304 -80.19871 30478 ft 470 kts 164°
2026-05-06 00:46 27.75229 -80.18665 30253 ft 466 kts 164°
2026-05-06 00:46 27.72173 -80.17470 30007 ft 463 kts 164°
2026-05-06 00:46 27.69130 -80.16284 29735 ft 460 kts 164°
2026-05-06 00:46 27.66126 -80.15117 29467 ft 455 kts 165°
2026-05-06 00:47 27.63140 -80.13964 29203 ft 452 kts 165°
2026-05-06 00:47 27.60178 -80.12812 28972 ft 447 kts 164°
2026-05-06 00:47 27.57260 -80.11637 28613 ft 444 kts 163°
2026-05-06 00:47 27.54369 -80.10439 28225 ft 441 kts 163°
2026-05-06 00:48 27.51503 -80.09234 27843 ft 438 kts 163°
2026-05-06 00:48 27.48655 -80.08038 27454 ft 435 kts 163°
2026-05-06 00:48 27.45822 -80.06858 27062 ft 433 kts 163°
2026-05-06 00:48 27.43004 -80.05697 26659 ft 430 kts 164°
2026-05-06 00:49 27.40197 -80.04551 26253 ft 428 kts 164°
2026-05-06 00:49 27.37359 -80.03432 25838 ft 425 kts 166°
2026-05-06 00:49 27.34541 -80.02464 25414 ft 422 kts 169°
2026-05-06 00:49 27.31716 -80.01602 25000 ft 419 kts 170°
2026-05-06 00:50 27.28892 -80.00792 24564 ft 418 kts 171°
2026-05-06 00:50 27.26075 -79.99992 24136 ft 417 kts 171°
2026-05-06 00:50 27.23289 -79.99134 23883 ft 411 kts 168°
2026-05-06 00:50 27.20582 -79.98200 23665 ft 404 kts 167°
2026-05-06 00:51 27.17952 -79.97233 23276 ft 400 kts 166°
2026-05-06 00:51 27.15287 -79.96231 22863 ft 397 kts 166°
2026-05-06 00:51 27.12678 -79.95251 22449 ft 394 kts 166°
2026-05-06 00:51 27.10115 -79.94299 22040 ft 391 kts 166°
2026-05-06 00:52 27.07534 -79.93356 21645 ft 388 kts 166°
2026-05-06 00:52 27.04981 -79.92410 21259 ft 385 kts 165°
2026-05-06 00:52 27.02460 -79.91422 20876 ft 383 kts 164°
2026-05-06 00:52 26.99965 -79.90408 20483 ft 380 kts 163°
2026-05-06 00:53 26.97494 -79.89387 20123 ft 377 kts 163°
2026-05-06 00:53 26.95041 -79.88373 19755 ft 374 kts 163°
2026-05-06 00:53 26.92604 -79.87374 19392 ft 372 kts 163°
2026-05-06 00:53 26.90183 -79.86390 19037 ft 369 kts 163°
2026-05-06 00:54 26.87777 -79.85419 18693 ft 366 kts 163°
2026-05-06 00:54 26.85386 -79.84457 18343 ft 364 kts 163°
2026-05-06 00:54 26.83013 -79.83503 17953 ft 361 kts 163°
2026-05-06 00:54 26.80652 -79.82555 17571 ft 358 kts 163°
2026-05-06 00:55 26.78321 -79.81622 17216 ft 355 kts 163°
2026-05-06 00:55 26.76008 -79.80695 16857 ft 352 kts 163°
2026-05-06 00:55 26.73708 -79.79771 16493 ft 349 kts 163°
2026-05-06 00:55 26.71372 -79.79145 16135 ft 343 kts 176°
2026-05-06 00:56 26.69017 -79.79106 15789 ft 336 kts 189°
2026-05-06 00:56 26.66757 -79.79623 15443 ft 329 kts 202°
2026-05-06 00:56 26.64618 -79.80496 15072 ft 327 kts 204°
2026-05-06 00:56 26.62487 -79.81371 14711 ft 326 kts 203°
2026-05-06 00:57 26.60361 -79.82234 14379 ft 324 kts 203°
2026-05-06 00:57 26.58217 -79.83102 14048 ft 323 kts 203°
2026-05-06 00:57 26.56112 -79.83954 13705 ft 321 kts 203°
2026-05-06 00:57 26.54029 -79.84829 13343 ft 319 kts 205°
2026-05-06 00:58 26.51986 -79.85764 12998 ft 316 kts 206°
2026-05-06 00:58 26.49970 -79.86725 12645 ft 314 kts 206°
2026-05-06 00:58 26.47969 -79.87691 12302 ft 312 kts 206°
2026-05-06 00:58 26.45987 -79.88646 11961 ft 310 kts 206°
2026-05-06 00:59 26.44023 -79.89582 11442 ft 305 kts 206°
2026-05-06 00:59 26.42075 -79.90502 10840 ft 302 kts 206°
2026-05-06 00:59 26.40147 -79.91409 10278 ft 298 kts 206°
2026-05-06 00:59 26.38254 -79.92323 9674 ft 294 kts 211°
2026-05-06 01:00 26.36488 -79.93455 9241 ft 292 kts 213°
2026-05-06 01:00 26.34737 -79.94588 8919 ft 290 kts 213°
2026-05-06 01:00 26.32996 -79.95706 8576 ft 288 kts 213°
2026-05-06 01:00 26.31262 -79.96817 8256 ft 286 kts 213°
2026-05-06 01:01 26.29537 -79.97917 7936 ft 285 kts 212°
2026-05-06 01:01 26.27820 -79.99011 7599 ft 284 kts 212°
2026-05-06 01:01 26.26112 -80.00105 7273 ft 282 kts 212°
2026-05-06 01:01 26.24417 -80.01196 6969 ft 281 kts 212°
2026-05-06 01:02 26.22726 -80.02284 6646 ft 279 kts 212°
2026-05-06 01:02 26.21046 -80.03365 6316 ft 278 kts 211°
2026-05-06 01:02 26.19420 -80.04511 6052 ft 273 kts 222°
2026-05-06 01:02 26.18136 -80.06024 5863 ft 267 kts 237°
2026-05-06 01:03 26.17273 -80.07837 5697 ft 267 kts 251°
2026-05-06 01:03 26.16689 -80.09798 5520 ft 265 kts 253°
2026-05-06 01:03 26.16107 -80.11741 5353 ft 264 kts 253°
2026-05-06 01:03 26.15525 -80.13667 5186 ft 262 kts 253°
2026-05-06 01:04 26.15075 -80.15626 5022 ft 262 kts 264°
2026-05-06 01:04 26.15025 -80.17641 4856 ft 260 kts 270°
2026-05-06 01:04 26.15040 -80.19663 4687 ft 262 kts 270°
2026-05-06 01:04 26.15050 -80.21691 4518 ft 263 kts 270°
2026-05-06 01:05 26.15060 -80.23726 4356 ft 262 kts 270°
2026-05-06 01:05 26.15070 -80.25750 4191 ft 261 kts 271°
2026-05-06 01:05 26.15091 -80.27745 4066 ft 254 kts 271°
2026-05-06 01:05 26.15109 -80.29664 4015 ft 241 kts 271°
2026-05-06 01:06 26.15108 -80.31468 4015 ft 225 kts 270°
2026-05-06 01:06 26.15092 -80.33174 4020 ft 218 kts 269°
2026-05-06 01:06 26.15068 -80.34860 4020 ft 218 kts 270°
2026-05-06 01:06 26.15042 -80.36549 4019 ft 218 kts 270°
2026-05-06 01:07 26.15013 -80.38232 4017 ft 217 kts 269°
2026-05-06 01:07 26.14820 -80.39890 4013 ft 218 kts 248°
2026-05-06 01:07 26.13883 -80.41194 4012 ft 220 kts 213°
2026-05-06 01:07 26.12433 -80.41685 4012 ft 223 kts 179°
2026-05-06 01:08 26.10885 -80.41480 4011 ft 225 kts 170°
2026-05-06 01:08 26.09372 -80.41025 4008 ft 227 kts 156°
2026-05-06 01:08 26.08069 -80.40061 3976 ft 226 kts 135°
2026-05-06 01:08 26.07141 -80.38670 3819 ft 224 kts 114°
2026-05-06 01:09 26.06710 -80.37024 3590 ft 221 kts 93°
2026-05-06 01:09 26.06684 -80.35325 3330 ft 219 kts 89°
2026-05-06 01:09 26.06679 -80.33635 3050 ft 219 kts 89°
2026-05-06 01:09 26.06672 -80.31942 2770 ft 219 kts 89°
2026-05-06 01:10 26.06664 -80.30244 2470 ft 218 kts 89°
2026-05-06 01:10 26.06655 -80.28585 2201 ft 208 kts 89°
2026-05-06 01:10 26.06647 -80.27025 1941 ft 196 kts 88°
2026-05-06 01:10 26.06640 -80.25551 1698 ft 185 kts 88°
2026-05-06 01:11 26.06633 -80.24175 1475 ft 169 kts 88°
2026-05-06 01:11 26.06626 -80.22924 1252 ft 154 kts 88°
2026-05-06 01:11 26.06620 -80.21779 1049 ft 143 kts 88°
2026-05-06 01:11 26.06614 -80.20687 871 ft 139 kts 90°
2026-05-06 01:12 26.06609 -80.19626 720 ft 137 kts 89°
2026-05-06 01:12 26.06606 -80.18565 572 ft 137 kts 88°
2026-05-06 01:12 26.06613 -80.17511 303 ft 135 kts 88°
2026-05-06 01:12 26.06587 -80.16467 164 ft 134 kts 88°
2026-05-06 01:13 26.06587 -80.15421 35 ft 132 kts 88°
2026-05-06 01:13 26.06582 -80.14569 39 ft 85 kts 90°
2026-05-06 01:13 26.06589 -80.14260 51 ft 13 kts 65°
2026-05-06 01:13 26.06669 -80.14240 50 ft 16 kts 319°
2026-05-06 01:14 26.06676 -80.14464 44 ft 22 kts 269°
2026-05-06 01:14 26.06676 -80.14647 34 ft 26 kts 269°
2026-05-06 01:14 26.06677 -80.14760 28 ft 0 kts 272°
2026-05-06 01:15 26.06677 -80.14770 28 ft 5 kts 272°
2026-05-06 01:15 26.06680 -80.14848 20 ft 14 kts 272°
2026-05-06 01:15 26.06740 -80.14919 17 ft 16 kts 15°
2026-05-06 01:15 26.06765 -80.14796 15 ft 18 kts 92°
2026-05-06 01:16 26.06765 -80.14644 15 ft 21 kts 89°
2026-05-06 01:16 26.06821 -80.14594 16 ft 12 kts 325°
2026-05-06 01:16 26.06892 -80.14666 16 ft 16 kts 317°
2026-05-06 01:16 26.06917 -80.14691 16 ft 4 kts 320°
2026-05-06 01:17 26.06987 -80.14755 16 ft 21 kts 316°
2026-05-06 01:17 26.07097 -80.14863 17 ft 16 kts 337°
2026-05-06 01:17 26.07160 -80.14819 16 ft 12 kts 45°
2026-05-06 01:17 26.07226 -80.14740 17 ft 16 kts 56°
2026-05-06 01:18 26.07200 -80.14650 16 ft 7 kts 163°
2026-05-06 01:18 26.07157 -80.14648 16 ft 5 kts 179°
2026-05-06 01:18 26.07151 -80.14648 16 ft 0 kts 178°